Location: Boiro
(42.6475°N, 8.8834°W)
Time: 23:54:43
(UTC+01:00)

Transit 2A - Pass Details

Date: 08 December 2021
Orbit: 591 x 967 km, 66.7° (Epoch: 18 January)

Event Time Altitude Azimuth Distance (km) Brightness Sun altitude
Rises 09:28:48 0° 328° (NNW) 3,663 8.9 4.6°
Reaches altitude 10° 09:31:24 10° 329° (NNW) 2,710 8.3 5.0°
Maximum altitude 09:37:49 87° 244° (WSW) 949 6.6 5.9°
Drops below altitude 10° 09:43:53 10° 152° (SSE) 2,562 10.2 6.8°
Sets 09:46:17 0° 152° (SSE) 3,452 10.9 7.1°
